This is the latest recevied weather packets stored in our database for station/object IK6IHU-3. If no packets are shown the sender has not sent any weather packets the latest 10 day(s).
| Time | Temp. | Humidity | Pressure | Rain* | Wind** | Luminosity | Snow |
|---|---|---|---|---|---|---|---|
| 1778420854 | 22.22° C | 54% | 1010.4 hPa | 0 mm | - | 0 W/m² | - |
| 1778420794 | 22.22° C | 55% | 1010.2 hPa | 0 mm | - | 0 W/m² | - |
| 1778420734 | 22.22° C | 54% | 1010 hPa | 0 mm | - | 0 W/m² | - |
| 1778420675 | 22.22° C | 54% | 1010.3 hPa | 0 mm | - | 0 W/m² | - |
| 1778420614 | 22.22° C | 54% | 1010.2 hPa | 0 mm | - | 0 W/m² | - |
| 1778420556 | 22.22° C | 54% | 1010.3 hPa | 0 mm | - | 0 W/m² | - |
| 1778420495 | 22.22° C | 55% | 1010.4 hPa | 0 mm | - | 0 W/m² | - |
| 1778420435 | 22.22° C | 55% | 1010.5 hPa | 0 mm | - | 0 W/m² | - |
| 1778420375 | 22.22° C | 55% | 1010.2 hPa | 0 mm | - | 0 W/m² | - |
| 1778420315 | 22.22° C | 55% | 1010.7 hPa | 0 mm | - | 0 W/m² | - |
| 1778420255 | 22.22° C | 56% | 1010.3 hPa | 0 mm | - | 0 W/m² | - |
| 1778420194 | 22.22° C | 56% | 1010.4 hPa | 0 mm | - | 0 W/m² | - |
| 1778420135 | 22.22° C | 56% | 1010.7 hPa | 0 mm | - | 0 W/m² | - |
| 1778420075 | 22.22° C | 58% | 1010.5 hPa | 0 mm | - | 0 W/m² | - |
| 1778420015 | 21.11° C | 62% | 1010.4 hPa | 0 mm | - | 0 W/m² | - |
| 1778419955 | 21.67° C | 69% | 1010.5 hPa | 0 mm | - | 0 W/m² | - |
| 1778419895 | 21.67° C | 69% | 1010.5 hPa | 0 mm | - | 0 W/m² | - |
| 1778419835 | 21.67° C | 69% | 1010.4 hPa | 0 mm | - | 0 W/m² | - |
| 1778419775 | 21.11° C | 68% | 1010.7 hPa | 0 mm | - | 0 W/m² | - |
| 1778419715 | 21.11° C | 68% | 1010.7 hPa | 0 mm | - | 0 W/m² | - |
| 1778419655 | 21.11° C | 69% | 1010.6 hPa | 0 mm | - | 0 W/m² | - |
| 1778419595 | 21.11° C | 69% | 1010.2 hPa | 0 mm | - | 0 W/m² | - |
| 1778419535 | 21.11° C | 71% | 1010.6 hPa | 0 mm | - | 0 W/m² | - |
| 1778419474 | 21.11° C | 71% | 1010.6 hPa | 0 mm | - | 0 W/m² | - |
| 1778419415 | 20.56° C | 71% | 1010.7 hPa | 0 mm | - | 0 W/m² | - |
* Rain latest hour (hover to see other rain measurements)
** Current wind speed in m/s (hover to see current wind gust speed)